QPF
0.00 0.00 0.01 0.02 0.03 0.04 0.06 0.09 0.11 0.11 0.10 0.09 0.07 0.07 0.07 0.04 0.04 0.03 0.03 0.04 0.04 0.06 0.11 0.14 0.14 0.12 0.12 0.11 0.11 0.09 0.07 0.06 0.05 0.03 0.02 0.02 0.01 0.00 0.00 0.00 0.01 0.00 0.00
0.00 0.00 0.00 0.01 0.01 0.02 0.03 0.05 0.07 0.08 0.08 0.08 0.07 0.07 0.06 0.07 0.08 0.07 0.05 0.04 0.03 0.04 0.06 0.11 0.14 0.15 0.13 0.10 0.11 0.10 0.09 0.09 0.08 0.05 0.03 0.03 0.02 0.01 0.00 0.00 0.00 0.00 0.00
0.00 0.00 0.01 0.01 0.01 0.01 0.02 0.03 0.04 0.06 0.06 0.06 0.07 0.07 0.07 0.06 0.06 0.05 0.04 0.04 0.03 0.03 0.05 0.07 0.08 0.12 0.12 0.12 0.11 0.10 0.09 0.09 0.08 0.06 0.05 0.04 0.03 0.02 0.01 0.00 0.00 0.00 0.00
0.00 0.01 0.01 0.01 0.01 0.01 0.01 0.02 0.03 0.02 0.03 0.04 0.04 0.04 0.04 0.06 0.06 0.06 0.06 0.05 0.03 0.02 0.03 0.05 0.07 0.08 0.10 0.10 0.12 0.12 0.11 0.09 0.07 0.06 0.05 0.04 0.05 0.04 0.02 0.01 0.00 0.00 0.00
0.00 0.01 0.01 0.01 0.01 0.01 0.01 0.01 0.01 0.01 0.01 0.01 0.01 0.01 0.01 0.02 0.02 0.02 0.02 0.03 0.04 0.04 0.04 0.05 0.04 0.06 0.07 0.08 0.11 0.13 0.12 0.09 0.07 0.06 0.05 0.04 0.05 0.05 0.04 0.03 0.02 0.01 0.00
0.00 0.00 0.00 0.00 0.00 0.00 0.01 0.01 0.01 0.01 0.00 0.00 0.00 0.00 0.00 0.01 0.01 0.01 0.01 0.01 0.02 0.02 0.03 0.04 0.05 0.04 0.04 0.06 0.09 0.11 0.12 0.10 0.08 0.06 0.05 0.04 0.04 0.04 0.03 0.03 0.03 0.02 0.01
0.00 0.00 0.00 0.00 0.00 0.00 0.00 0.00 0.00 0.00 0.00 0.00 0.00 0.00 0.00 0.00 0.00 0.00 0.01 0.01 0.02 0.02 0.03 0.04 0.05 0.07 0.06 0.03 0.03 0.05 0.08 0.11 0.10 0.08 0.07 0.06 0.05 0.04 0.03 0.03 0.02 0.02 0.02
0.00 0.00 0.00 0.00 0.00 0.00 0.00 0.00 0.00 0.00 0.00 0.00 0.00 0.00 0.00 0.00 0.00 0.00 0.00 0.00 0.01 0.01 0.02 0.03 0.04 0.06 0.06 0.06 0.03 0.02 0.04 0.07 0.09 0.08 0.07 0.06 0.05 0.04 0.03 0.02 0.02 0.01 0.01
0.00 0.00 0.00 0.00 0.00 0.00 0.00 0.00 0.00 0.00 0.00 0.00 0.00 0.00 0.00 0.00 0.00 0.00 0.00 0.00 0.00 0.00 0.01 0.01 0.02 0.03 0.04 0.05 0.06 0.03 0.03 0.03 0.06 0.08 0.08 0.07 0.05 0.04 0.03 0.03 0.02 0.01 0.01
0.00 0.00 0.00 0.00 0.00 0.00 0.00 0.00 0.00 0.00 0.00 0.00 0.00 0.00 0.00 0.00 0.00 0.00 0.00 0.00 0.00 0.00 0.00 0.00 0.01 0.02 0.03 0.03 0.04 0.03 0.02 0.02 0.03 0.06 0.07 0.07 0.06 0.05 0.03 0.03 0.03 0.02 0.01
0.00 0.00 0.00 0.00 0.00 0.00 0.00 0.00 0.00 0.00 0.00 0.00 0.00 0.00 0.00 0.00 0.00 0.00 0.00 0.00 0.00 0.00 0.00 0.00 0.00 0.01 0.01 0.02 0.03 0.02 0.01 0.00 0.01 0.02 0.04 0.05 0.06 0.06 0.05 0.05 0.06 0.06 0.05
0.00 0.00 0.00 0.00 0.00 0.00 0.00 0.00 0.00 0.00 0.00 0.00 0.00 0.00 0.00 0.00 0.00 0.00 0.00 0.00 0.00 0.00 0.00 0.00 0.00 0.00 0.00 0.01 0.01 0.01 0.00 0.01 0.01 0.01 0.01 0.01 0.03 0.04 0.05 0.06 0.06 0.07 0.08
0.00 0.00 0.00 0.00 0.00 0.00 0.00 0.00 0.00 0.00 0.00 0.00 0.00 0.00 0.00 0.00 0.00 0.00 0.00 0.00 0.00 0.00 0.00 0.00 0.00 0.00 0.00 0.00 0.01 0.00 0.00 0.00 0.00 0.00 0.00 0.01 0.01 0.02 0.02 0.03 0.05 0.07 0.08
0.00 0.00 0.00 0.00 0.00 0.00 0.00 0.00 0.00 0.00 0.00 0.00 0.00 0.00 0.00 0.00 0.00 0.00 0.00 0.00 0.00 0.00 0.00 0.00 0.00 0.00 0.00 0.00 0.00 0.00 0.00 0.00 0.00 0.00 0.00 0.00 0.01 0.01 0.02 0.02 0.03 0.04 0.05
0.00 0.00 0.00 0.00 0.00 0.00 0.00 0.00 0.00 0.00 0.00 0.00 0.00 0.00 0.00 0.00 0.00 0.00 0.00 0.00 0.00 0.00 0.00 0.00 0.00 0.00 0.00 0.00 0.00 0.00 0.00 0.00 0.00 0.00 0.00 0.00 0.00 0.01 0.01 0.02 0.03 0.02 0.02
0.00 0.00 0.00 0.00 0.00 0.00 0.00 0.00 0.00 0.00 0.00 0.00 0.00 0.00 0.00 0.00 0.00 0.00 0.00 0.00 0.00 0.00 0.00 0.00 0.00 0.00 0.00 0.00 0.00 0.00 0.00 0.00 0.00 0.00 0.00 0.00 0.00 0.00 0.01 0.01 0.02 0.02 0.02
0.00 0.00 0.00 0.00 0.00 0.00 0.00 0.00 0.00 0.00 0.00 0.00 0.00 0.00 0.00 0.00 0.00 0.00 0.00 0.00 0.00 0.00 0.00 0.00 0.00 0.00 0.00 0.00 0.00 0.00 0.00 0.00 0.00 0.00 0.00 0.00 0.00 0.00 0.00 0.01 0.01 0.01 0.02
0.00 0.00 0.00 0.00 0.00 0.00 0.00 0.00 0.00 0.00 0.00 0.00 0.00 0.00 0.00 0.00 0.00 0.00 0.00 0.00 0.00 0.00 0.00 0.00 0.00 0.00 0.00 0.00 0.00 0.00 0.00 0.00 0.00 0.00 0.00 0.00 0.00 0.00 0.00 0.00 0.01 0.01 0.01
0.00 0.00 0.00 0.00 0.00 0.00 0.00 0.00 0.00 0.00 0.00 0.00 0.00 0.00 0.00 0.00 0.00 0.00 0.00 0.00 0.00 0.00 0.00 0.00 0.00 0.00 0.00 0.00 0.00 0.00 0.00 0.00 0.00 0.00 0.00 0.00 0.00 0.00 0.00 0.00 0.00 0.00 0.01
0.00 0.00 0.00 0.00 0.00 0.00 0.00 0.00 0.00 0.00 0.00 0.00 0.00 0.00 0.00 0.00 0.00 0.00 0.00 0.00 0.00 0.00 0.00 0.00 0.00 0.00 0.00 0.00 0.00 0.00 0.00 0.00 0.00 0.00 0.00 0.00 0.00 0.00 0.00 0.00 0.00 0.00 0.00
0.00 0.00 0.00 0.00 0.00 0.00 0.00 0.00 0.00 0.00 0.00 0.00 0.00 0.00 0.00 0.00 0.00 0.00 0.00 0.00 0.00 0.00 0.00 0.00 0.00 0.00 0.00 0.00 0.00 0.00 0.00 0.00 0.00 0.00 0.00 0.00 0.00 0.00 0.00 0.00 0.00 0.00 0.00
0.00 0.00 0.00 0.00 0.00 0.00 0.00 0.00 0.00 0.00 0.00 0.00 0.00 0.00 0.00 0.00 0.00 0.00 0.00 0.00 0.00 0.00 0.00 0.00 0.00 0.00 0.00 0.00 0.00 0.00 0.00 0.00 0.00 0.00 0.00 0.00 0.00 0.00 0.00 0.00 0.00 0.00 0.00
0.00 0.00 0.00 0.00 0.00 0.00 0.00 0.00 0.00 0.00 0.00 0.00 0.00 0.00 0.00 0.00 0.00 0.00 0.00 0.00 0.00 0.00 0.00 0.00 0.00 0.00 0.00 0.00 0.00 0.00 0.00 0.00 0.00 0.00 0.00 0.00 0.00 0.00 0.00 0.00 0.00 0.00 0.00
0.01 0.00 0.00 0.00 0.00 0.00 0.01 0.00 0.01 0.00 0.00 0.00 0.00 0.00 0.00 0.00 0.00 0.00 0.00 0.00 0.00 0.00 0.00 0.00 0.00 0.00 0.00 0.00 0.01 0.01 0.01 0.01 0.01 0.00 0.00 0.00 0.00 0.00 0.00 0.00 0.00 0.00 0.00
0.02 0.02 0.01 0.01 0.01 0.01 0.01 0.02 0.01 0.01 0.00 0.00 0.00 0.00 0.00 0.00 0.00 0.00 0.00 0.00 0.00 0.00 0.00 0.00 0.00 0.00 0.00 0.00 0.00 0.01 0.01 0.01 0.00 0.00 0.01 0.00 0.00 0.00 0.00 0.00 0.00 0.00 0.00
0.03 0.03 0.02 0.02 0.01 0.01 0.01 0.02 0.02 0.01 0.01 0.01 0.01 0.01 0.01 0.01 0.01 0.01 0.01 0.00 0.01 0.01 0.01 0.01 0.00 0.00 0.00 0.00 0.00 0.00 0.01 0.01 0.01 0.01 0.01 0.01 0.00 0.00 0.00 0.00 0.00 0.00 0.00
MSLP
1017.87 1017.73 1017.54 1017.34 1017.20 1017.14 1017.18 1017.32 1017.53 1017.76 1017.97 1018.11 1018.17 1018.16 1018.11 1018.05 1018.05 1018.13 1018.32 1018.61 1018.97 1019.37 1019.77 1020.14 1020.45 1020.71 1020.92 1021.11 1021.29 1021.47 1021.67 1021.89 1022.13 1022.36 1022.60 1022.83 1023.05 1023.27 1023.48 1023.68 1023.86 1024.02 1024.17
1018.14 1017.99 1017.78 1017.56 1017.38 1017.28 1017.28 1017.38 1017.56 1017.77 1017.97 1018.12 1018.20 1018.21 1018.17 1018.12 1018.09 1018.12 1018.23 1018.43 1018.71 1019.04 1019.39 1019.73 1020.05 1020.34 1020.61 1020.85 1021.09 1021.32 1021.57 1021.81 1022.06 1022.31 1022.55 1022.79 1023.02 1023.24 1023.45 1023.66 1023.85 1024.03 1024.18
1018.49 1018.34 1018.13 1017.91 1017.71 1017.58 1017.54 1017.60 1017.73 1017.91 1018.09 1018.23 1018.31 1018.33 1018.29 1018.22 1018.16 1018.13 1018.17 1018.28 1018.46 1018.70 1018.99 1019.29 1019.60 1019.91 1020.22 1020.51 1020.80 1021.09 1021.37 1021.65 1021.92 1022.17 1022.42 1022.66 1022.89 1023.11 1023.34 1023.56 1023.77 1023.97 1024.14
1018.87 1018.75 1018.56 1018.34 1018.14 1018.00 1017.93 1017.94 1018.02 1018.15 1018.29 1018.40 1018.48 1018.49 1018.44 1018.36 1018.27 1018.19 1018.15 1018.18 1018.26 1018.41 1018.62 1018.87 1019.15 1019.46 1019.78 1020.11 1020.44 1020.77 1021.08 1021.38 1021.66 1021.93 1022.18 1022.41 1022.65 1022.89 1023.13 1023.37 1023.61 1023.84 1024.05
1019.25 1019.16 1019.00 1018.81 1018.62 1018.47 1018.37 1018.34 1018.37 1018.44 1018.53 1018.62 1018.67 1018.67 1018.62 1018.53 1018.42 1018.30 1018.21 1018.15 1018.15 1018.21 1018.33 1018.52 1018.75 1019.03 1019.34 1019.68 1020.03 1020.37 1020.71 1021.02 1021.31 1021.57 1021.82 1022.06 1022.30 1022.55 1022.81 1023.09 1023.37 1023.64 1023.89
1019.57 1019.51 1019.40 1019.25 1019.09 1018.94 1018.82 1018.76 1018.74 1018.76 1018.80 1018.84 1018.87 1018.86 1018.81 1018.72 1018.60 1018.47 1018.33 1018.22 1018.15 1018.12 1018.16 1018.26 1018.43 1018.66 1018.94 1019.26 1019.60 1019.94 1020.28 1020.59 1020.87 1021.13 1021.37 1021.60 1021.84 1022.10 1022.39 1022.69 1023.02 1023.34 1023.65
1019.78 1019.78 1019.71 1019.61 1019.49 1019.36 1019.24 1019.15 1019.09 1019.07 1019.06 1019.07 1019.08 1019.06 1019.02 1018.94 1018.83 1018.69 1018.53 1018.38 1018.25 1018.15 1018.11 1018.13 1018.22 1018.38 1018.61 1018.89 1019.20 1019.52 1019.84 1020.13 1020.40 1020.63 1020.86 1021.08 1021.31 1021.57 1021.87 1022.20 1022.56 1022.93 1023.30
1019.88 1019.92 1019.91 1019.86 1019.79 1019.69 1019.59 1019.50 1019.42 1019.36 1019.32 1019.30 1019.28 1019.27 1019.23 1019.17 1019.08 1018.95 1018.79 1018.62 1018.44 1018.29 1018.17 1018.11 1018.13 1018.22 1018.39 1018.61 1018.87 1019.16 1019.44 1019.70 1019.93 1020.14 1020.34 1020.53 1020.74 1020.99 1021.29 1021.63 1022.01 1022.42 1022.82
1019.85 1019.93 1019.98 1019.99 1019.97 1019.92 1019.85 1019.77 1019.69 1019.62 1019.56 1019.52 1019.50 1019.48 1019.46 1019.42 1019.35 1019.24 1019.09 1018.90 1018.70 1018.51 1018.33 1018.21 1018.16 1018.18 1018.27 1018.44 1018.65 1018.88 1019.12 1019.34 1019.54 1019.71 1019.86 1020.02 1020.20 1020.42 1020.69 1021.02 1021.40 1021.81 1022.24
1019.71 1019.83 1019.92 1020.00 1020.04 1020.05 1020.03 1019.98 1019.91 1019.84 1019.78 1019.73 1019.70 1019.69 1019.68 1019.66 1019.61 1019.52 1019.38 1019.20 1018.99 1018.77 1018.56 1018.38 1018.27 1018.23 1018.27 1018.37 1018.53 1018.71 1018.90 1019.08 1019.23 1019.36 1019.48 1019.59 1019.73 1019.90 1020.13 1020.42 1020.77 1021.16 1021.57
1019.49 1019.63 1019.78 1019.91 1020.01 1020.08 1020.11 1020.10 1020.06 1020.01 1019.96 1019.92 1019.89 1019.88 1019.88 1019.87 1019.84 1019.76 1019.64 1019.47 1019.26 1019.02 1018.79 1018.59 1018.44 1018.35 1018.34 1018.39 1018.50 1018.63 1018.78 1018.91 1019.03 1019.12 1019.19 1019.26 1019.35 1019.48 1019.66 1019.90 1020.19 1020.53 1020.90
1019.19 1019.37 1019.55 1019.73 1019.89 1020.02 1020.10 1020.14 1020.14 1020.12 1020.08 1020.06 1020.04 1020.03 1020.04 1020.04 1020.01 1019.95 1019.84 1019.68 1019.48 1019.25 1019.01 1018.79 1018.61 1018.50 1018.45 1018.46 1018.52 1018.61 1018.71 1018.81 1018.89 1018.95 1018.99 1019.03 1019.08 1019.17 1019.30 1019.48 1019.71 1019.98 1020.28
1018.85 1019.05 1019.26 1019.48 1019.69 1019.86 1020.00 1020.09 1020.13 1020.14 1020.13 1020.12 1020.12 1020.12 1020.13 1020.13 1020.11 1020.06 1019.96 1019.81 1019.62 1019.40 1019.17 1018.95 1018.76 1018.62 1018.54 1018.52 1018.54 1018.59 1018.66 1018.73 1018.78 1018.82 1018.84 1018.87 1018.90 1018.96 1019.05 1019.18 1019.34 1019.55 1019.77
1018.47 1018.68 1018.92 1019.17 1019.41 1019.63 1019.80 1019.93 1020.02 1020.07 1020.09 1020.10 1020.11 1020.12 1020.13 1020.14 1020.12 1020.08 1019.99 1019.85 1019.68 1019.47 1019.25 1019.04 1018.85 1018.70 1018.60 1018.54 1018.52 1018.54 1018.57 1018.60 1018.64 1018.67 1018.69 1018.71 1018.75 1018.80 1018.87 1018.97 1019.10 1019.24 1019.39
1018.03 1018.27 1018.53 1018.80 1019.06 1019.31 1019.51 1019.68 1019.80 1019.88 1019.93 1019.97 1020.00 1020.02 1020.04 1020.05 1020.04 1020.00 1019.92 1019.80 1019.64 1019.46 1019.26 1019.06 1018.87 1018.71 1018.59 1018.50 1018.44 1018.41 1018.40 1018.41 1018.42 1018.44 1018.47 1018.51 1018.57 1018.63 1018.72 1018.81 1018.91 1019.01 1019.11
1017.54 1017.80 1018.07 1018.36 1018.64 1018.90 1019.13 1019.32 1019.46 1019.58 1019.66 1019.72 1019.77 1019.81 1019.84 1019.85 1019.85 1019.81 1019.75 1019.65 1019.52 1019.36 1019.18 1019.00 1018.82 1018.65 1018.50 1018.38 1018.28 1018.20 1018.15 1018.11 1018.10 1018.12 1018.15 1018.21 1018.29 1018.39 1018.50 1018.61 1018.72 1018.80 1018.86
1016.97 1017.26 1017.56 1017.85 1018.14 1018.41 1018.65 1018.85 1019.02 1019.15 1019.26 1019.34 1019.41 1019.47 1019.51 1019.54 1019.55 1019.53 1019.48 1019.40 1019.30 1019.17 1019.02 1018.86 1018.69 1018.52 1018.35 1018.19 1018.04 1017.92 1017.81 1017.73 1017.69 1017.68 1017.71 1017.78 1017.88 1018.01 1018.16 1018.30 1018.42 1018.51 1018.57
1016.35 1016.66 1016.97 1017.28 1017.57 1017.84 1018.08 1018.29 1018.47 1018.62 1018.74 1018.85 1018.94 1019.01 1019.07 1019.11 1019.13 1019.14 1019.11 1019.06 1018.99 1018.90 1018.78 1018.64 1018.49 1018.32 1018.14 1017.96 1017.77 1017.59 1017.42 1017.29 1017.20 1017.15 1017.16 1017.22 1017.33 1017.48 1017.64 1017.81 1017.95 1018.07 1018.14
1015.69 1016.02 1016.35 1016.66 1016.95 1017.21 1017.44 1017.65 1017.83 1017.99 1018.12 1018.24 1018.35 1018.44 1018.51 1018.57 1018.61 1018.64 1018.64 1018.63 1018.59 1018.54 1018.46 1018.36 1018.24 1018.08 1017.90 1017.69 1017.47 1017.24 1017.02 1016.83 1016.68 1016.58 1016.55 1016.58 1016.66 1016.80 1016.96 1017.14 1017.30 1017.44 1017.54
1015.03 1015.37 1015.70 1016.00 1016.28 1016.53 1016.75 1016.95 1017.12 1017.28 1017.42 1017.55 1017.66 1017.76 1017.85 1017.93 1017.99 1018.04 1018.08 1018.10 1018.11 1018.10 1018.07 1018.01 1017.91 1017.78 1017.61 1017.40 1017.15 1016.89 1016.63 1016.38 1016.17 1016.02 1015.92 1015.90 1015.94 1016.03 1016.17 1016.33 1016.49 1016.64 1016.76
1014.42 1014.76 1015.07 1015.36 1015.62 1015.85 1016.05 1016.23 1016.39 1016.53 1016.67 1016.80 1016.91 1017.03 1017.13 1017.22 1017.30 1017.37 1017.43 1017.49 1017.54 1017.58 1017.59 1017.58 1017.52 1017.42 1017.27 1017.07 1016.82 1016.54 1016.25 1015.96 1015.70 1015.48 1015.33 1015.23 1015.21 1015.24 1015.32 1015.44 1015.58 1015.72 1015.86
1013.93 1014.23 1014.51 1014.77 1015.00 1015.20 1015.37 1015.53 1015.67 1015.80 1015.92 1016.04 1016.16 1016.27 1016.38 1016.47 1016.57 1016.66 1016.74 1016.83 1016.91 1016.98 1017.04 1017.06 1017.05 1016.98 1016.85 1016.67 1016.44 1016.16 1015.86 1015.55 1015.26 1015.00 1014.79 1014.63 1014.54 1014.50 1014.51 1014.57 1014.67 1014.79 1014.92
1013.59 1013.83 1014.07 1014.28 1014.47 1014.63 1014.78 1014.90 1015.02 1015.13 1015.24 1015.35 1015.45 1015.56 1015.66 1015.75 1015.85 1015.94 1016.04 1016.14 1016.24 1016.33 1016.41 1016.46 1016.47 1016.43 1016.34 1016.18 1015.97 1015.71 1015.42 1015.12 1014.82 1014.54 1014.30 1014.10 1013.95 1013.84 1013.79 1013.79 1013.83 1013.90 1014.01
1013.42 1013.59 1013.77 1013.93 1014.08 1014.20 1014.31 1014.41 1014.50 1014.59 1014.68 1014.77 1014.85 1014.94 1015.02 1015.10 1015.17 1015.26 1015.34 1015.44 1015.53 1015.63 1015.71 1015.76 1015.78 1015.76 1015.68 1015.54 1015.36 1015.13 1014.87 1014.60 1014.32 1014.06 1013.82 1013.61 1013.43 1013.29 1013.19 1013.13 1013.11 1013.13 1013.20
1013.40 1013.51 1013.62 1013.73 1013.83 1013.92 1014.00 1014.08 1014.15 1014.21 1014.27 1014.33 1014.39 1014.43 1014.48 1014.52 1014.56 1014.61 1014.66 1014.73 1014.79 1014.86 1014.91 1014.95 1014.96 1014.92 1014.85 1014.73 1014.57 1014.38 1014.17 1013.94 1013.72 1013.50 1013.30 1013.11 1012.94 1012.80 1012.67 1012.58 1012.51 1012.48 1012.50
1013.49 1013.53 1013.58 1013.65 1013.72 1013.78 1013.85 1013.90 1013.95 1013.99 1014.02 1014.04 1014.05 1014.04 1014.03 1014.01 1013.99 1013.98 1013.97 1013.97 1013.99 1014.00 1014.01 1014.01 1013.98 1013.93 1013.85 1013.73 1013.60 1013.44 1013.28 1013.11 1012.96 1012.81 1012.67 1012.54 1012.42 1012.30 1012.18 1012.08 1011.98 1011.91 1011.87
Thickness
5730 5730 5728 5728 5730 5730 5730 5728 5728 5727 5727 5727 5728 5728 5727 5728 5729 5729 5728 5722 5719 5718 5717 5715 5714 5713 5712 5712 5712 5712 5713 5713 5713 5713 5713 5713 5713 5712 5712 5712 5711 5711 5710
5725 5725 5725 5725 5727 5727 5727 5726 5727 5726 5726 5726 5726 5726 5725 5726 5724 5724 5726 5723 5719 5718 5716 5715 5714 5712 5711 5710 5710 5710 5710 5711 5711 5711 5711 5711 5711 5711 5711 5711 5711 5710 5710
5721 5722 5723 5723 5723 5723 5722 5723 5724 5724 5724 5725 5724 5724 5724 5723 5724 5722 5723 5723 5721 5718 5716 5714 5713 5711 5710 5709 5708 5708 5708 5708 5709 5709 5709 5710 5710 5710 5710 5710 5709 5709 5709
5718 5718 5720 5721 5719 5721 5722 5722 5724 5724 5724 5724 5723 5724 5723 5721 5721 5720 5721 5720 5721 5721 5717 5714 5712 5710 5709 5708 5707 5706 5706 5706 5707 5707 5708 5708 5708 5708 5708 5708 5708 5708 5708
5715 5717 5717 5716 5718 5720 5720 5721 5721 5722 5722 5721 5723 5721 5723 5722 5721 5721 5721 5720 5719 5718 5718 5714 5712 5710 5709 5707 5706 5705 5705 5705 5706 5706 5706 5706 5707 5707 5707 5707 5707 5707 5707
5713 5715 5715 5713 5717 5718 5716 5716 5715 5715 5717 5717 5722 5721 5721 5721 5721 5721 5720 5721 5718 5717 5717 5716 5713 5711 5709 5708 5706 5705 5704 5704 5704 5705 5705 5705 5705 5705 5706 5706 5706 5706 5706
5712 5712 5714 5711 5713 5714 5712 5714 5714 5714 5715 5715 5717 5717 5719 5720 5720 5718 5719 5719 5719 5717 5716 5714 5713 5713 5711 5708 5706 5705 5704 5703 5704 5704 5704 5703 5704 5704 5704 5705 5705 5705 5705
5711 5712 5710 5713 5711 5710 5709 5710 5709 5713 5713 5713 5713 5714 5713 5713 5712 5716 5715 5715 5715 5715 5714 5713 5711 5709 5709 5710 5708 5706 5704 5703 5703 5702 5702 5702 5702 5702 5702 5703 5703 5704 5704
5711 5709 5709 5710 5709 5712 5710 5707 5708 5708 5711 5711 5712 5711 5710 5711 5711 5711 5709 5710 5710 5710 5712 5710 5709 5708 5707 5707 5707 5704 5703 5702 5702 5701 5701 5701 5701 5701 5701 5701 5702 5702 5703
5711 5709 5708 5707 5707 5710 5706 5709 5707 5708 5706 5710 5709 5707 5707 5707 5706 5706 5707 5709 5706 5705 5706 5707 5707 5705 5704 5704 5702 5701 5700 5699 5700 5700 5700 5699 5699 5699 5699 5700 5700 5701 5701
5712 5710 5708 5707 5706 5708 5706 5705 5704 5705 5706 5706 5706 5706 5704 5703 5704 5702 5701 5701 5704 5704 5703 5701 5702 5701 5699 5700 5699 5697 5696 5695 5696 5696 5697 5697 5697 5697 5698 5698 5698 5699 5699
5715 5712 5709 5707 5706 5707 5704 5703 5702 5702 5702 5700 5701 5702 5701 5701 5700 5699 5697 5695 5697 5699 5698 5697 5698 5696 5695 5695 5694 5691 5691 5691 5691 5692 5692 5693 5694 5695 5695 5695 5696 5697 5697
5718 5714 5712 5708 5707 5705 5703 5702 5700 5700 5699 5696 5696 5697 5698 5697 5696 5694 5692 5693 5691 5695 5693 5694 5694 5691 5691 5689 5687 5685 5686 5686 5686 5687 5688 5689 5690 5691 5692 5693 5693 5694 5694
5721 5717 5712 5709 5706 5704 5703 5700 5701 5698 5696 5694 5694 5691 5692 5693 5692 5690 5688 5686 5686 5689 5691 5689 5690 5688 5685 5683 5681 5679 5682 5681 5681 5682 5683 5684 5685 5686 5687 5688 5689 5690 5691
5720 5715 5712 5709 5707 5704 5701 5699 5699 5696 5693 5692 5692 5689 5688 5691 5687 5687 5685 5682 5679 5678 5682 5685 5682 5683 5679 5677 5675 5674 5675 5675 5675 5676 5677 5678 5679 5680 5681 5683 5684 5685 5687
5718 5715 5712 5709 5706 5703 5700 5697 5696 5694 5690 5689 5687 5685 5683 5686 5685 5683 5681 5679 5677 5673 5672 5679 5677 5678 5674 5671 5671 5669 5670 5669 5669 5670 5671 5671 5673 5674 5675 5677 5678 5680 5681
5717 5713 5711 5708 5705 5703 5699 5695 5694 5692 5688 5687 5685 5683 5680 5678 5679 5679 5677 5675 5673 5670 5666 5670 5672 5672 5666 5664 5665 5665 5665 5666 5668 5667 5666 5666 5666 5667 5669 5670 5672 5674 5675
5716 5713 5710 5707 5704 5701 5698 5694 5691 5690 5687 5684 5682 5680 5678 5677 5674 5672 5672 5671 5669 5667 5663 5661 5663 5664 5663 5661 5659 5659 5661 5664 5664 5664 5662 5661 5661 5662 5663 5664 5665 5667 5669
5715 5712 5709 5705 5702 5699 5696 5693 5690 5688 5685 5683 5681 5678 5676 5673 5670 5670 5667 5666 5665 5664 5661 5658 5658 5659 5658 5658 5656 5656 5657 5657 5658 5660 5658 5657 5656 5656 5657 5658 5659 5660 5662
5713 5710 5707 5704 5700 5697 5695 5692 5688 5685 5683 5681 5679 5676 5674 5671 5668 5665 5663 5661 5659 5657 5656 5654 5654 5655 5654 5654 5651 5650 5652 5655 5654 5655 5655 5654 5652 5651 5652 5652 5653 5654 5656
5711 5708 5704 5701 5698 5695 5693 5690 5685 5683 5679 5677 5675 5673 5672 5669 5666 5662 5661 5659 5656 5652 5652 5651 5651 5650 5650 5647 5647 5648 5647 5647 5649 5648 5648 5649 5650 5650 5651 5649 5649 5649 5649
5706 5704 5700 5697 5694 5693 5690 5683 5679 5678 5676 5673 5672 5670 5669 5665 5661 5655 5653 5650 5648 5647 5647 5645 5646 5645 5642 5642 5640 5639 5639 5640 5639 5644 5641 5641 5643 5644 5645 5645 5646 5645 5643
5700 5697 5694 5692 5689 5687 5681 5675 5670 5668 5669 5669 5668 5666 5665 5667 5660 5656 5651 5644 5641 5638 5636 5637 5639 5639 5638 5635 5632 5632 5630 5630 5631 5633 5632 5632 5635 5636 5638 5640 5639 5637 5636
5692 5689 5686 5684 5682 5680 5674 5668 5663 5660 5661 5662 5662 5660 5658 5657 5656 5652 5648 5646 5643 5641 5635 5630 5631 5633 5631 5628 5625 5623 5622 5622 5623 5623 5622 5622 5626 5628 5632 5633 5633 5631 5630
5681 5679 5677 5674 5672 5669 5664 5659 5652 5653 5654 5655 5655 5654 5652 5651 5648 5642 5638 5638 5638 5638 5635 5631 5629 5627 5623 5619 5616 5614 5615 5615 5617 5620 5621 5618 5619 5620 5623 5626 5627 5626 5625
5670 5668 5666 5664 5661 5659 5654 5647 5640 5642 5644 5646 5646 5646 5643 5641 5639 5633 5630 5629 5629 5631 5629 5628 5623 5619 5616 5613 5608 5605 5607 5609 5611 5613 5616 5612 5611 5611 5613 5618 5621 5622 5621